Santa Monica, CA

12:19 AM PST on February 09, 2016 (GMT -0800)
Santa Monica Municipal

Weather History for KSMO - March, 2014

Change the Weather History Date:

Wednesday, March 12, 2014

  Actual Average Record
Temperature  
Mean Temperature 68 °F -  
Max Temperature 82 °F 68 °F 87 °F (2007)
Min Temperature 55 °F 47 °F 35 °F (1935)
Cooling Degree Days 2    
Growing Degree Days 18 (Base 50)    
Moisture  
Dew Point 50 °F    
Average Humidity 66    
Maximum Humidity 87    
Minimum Humidity 12    
Precipitation  
Precipitation 0.00 in - - ()
Sea Level Pressure  
Sea Level Pressure 29.98 in    
Wind  
Wind Speed 2 mph (SSW)    
Max Wind Speed 13 mph    
Max Gust Speed -    
Visibility 8 miles    
Events      
Averages and records for this station are not official NWS values.
T = Trace of Precipitation, MM = Missing Value Source: NWS Daily Summary

Daily Weather History Graph

Daily Weather History Graph

Search for Another Location

Airport or City:

Trip Planner

Search our weather history database for the weather conditions in past years. The results will help you decide how hot, cold, wet, or windy it might be!

Date:

Astronomy

Mar. 12, 2014 Rise Set
Actual Time 7:08 AM PDT 6:59 PM PDT
Civil Twilight 6:43 AM PDT 7:24 PM PDT
Nautical Twilight 6:14 AM PDT 7:53 PM PDT
Astronomical Twilight 5:45 AM PDT 8:22 PM PDT
Moon 3:41 PM PDT (3/12) 4:34 AM PDT (3/12)
Length of Visible Light 12h 41m
Length of Day
11h 51m
Waxing Gibbous, 86% of the Moon is Illuminated
Mar 12
Waxing Gibbous
Mar 16
Full
Mar 23
Last Quarter
Mar 30
New
Apr 7
First Quarter

Hourly Weather History & Observations

Time (PDT) Temp. Dew Point Humidity Pressure Visibility Wind Dir Wind Speed Gust Speed Precip Events Conditions
12:04 AM 60.8 °F 55.4 °F 82% 29.99 in 9.0 mi Calm Calm - N/A   Scattered Clouds
12:13 AM 60.8 °F 55.4 °F 82% 29.99 in 8.0 mi Calm Calm - N/A   Mostly Cloudy
12:51 AM 62.1 °F 57.0 °F 84% 29.99 in 5.0 mi Calm Calm - N/A   Haze
1:51 AM 61.0 °F 55.0 °F 81% 29.98 in 5.0 mi Calm Calm - N/A   Haze
2:03 AM 60.8 °F 55.4 °F 82% 29.99 in 5.0 mi Calm Calm - N/A   Haze
2:51 AM 59.0 °F 54.0 °F 83% 29.98 in 4.0 mi Calm Calm - N/A   Haze
3:20 AM 59.0 °F 53.6 °F 82% 29.97 in 5.0 mi Calm Calm - N/A   Haze
3:51 AM 57.9 °F 53.1 °F 84% 29.96 in 5.0 mi Calm Calm - N/A   Haze
4:51 AM 57.0 °F 53.1 °F 87% 29.96 in 5.0 mi Calm Calm - N/A   Clear
5:51 AM 55.9 °F 51.1 °F 84% 29.98 in 6.0 mi Calm Calm - N/A   Haze
6:51 AM 55.9 °F 51.1 °F 84% 29.99 in 6.0 mi Calm Calm - N/A   Haze
7:51 AM 57.0 °F 52.0 °F 83% 30.01 in 5.0 mi Calm Calm - N/A   Haze
8:51 AM 62.1 °F 55.0 °F 78% 30.02 in 5.0 mi Calm Calm - N/A   Haze
9:51 AM 68.0 °F 48.0 °F 49% 30.02 in 10.0 mi Calm Calm - N/A   Clear
10:51 AM 73.9 °F 36.0 °F 25% 30.01 in 10.0 mi Variable 3.5 mph - N/A   Clear
11:51 AM 79.0 °F 27.0 °F 15% 30.00 in 10.0 mi Variable 6.9 mph - N/A   Clear
12:51 PM 80.1 °F 25.0 °F 13% 29.98 in 10.0 mi East 9.2 mph - N/A   Clear
1:51 PM 80.1 °F 21.9 °F 12% 29.95 in 10.0 mi SSW 11.5 mph - N/A   Clear
2:51 PM 72.0 °F 50.0 °F 46% 29.94 in 10.0 mi SW 9.2 mph - N/A   Clear
3:51 PM 71.1 °F 50.0 °F 47% 29.94 in 10.0 mi WSW 8.1 mph - N/A   Clear
4:51 PM 69.1 °F 51.1 °F 53% 29.92 in 10.0 mi SW 9.2 mph - N/A   Clear
5:51 PM 66.9 °F 54.0 °F 63% 29.92 in 10.0 mi SW 12.7 mph - N/A   Clear
6:51 PM 64.0 °F 55.0 °F 73% 29.96 in 10.0 mi SW 9.2 mph - N/A   Scattered Clouds
7:15 PM 64.4 °F 55.4 °F 73% 29.96 in 10.0 mi South 6.9 mph - N/A   Mostly Cloudy
7:51 PM 63.0 °F 54.0 °F 72% 29.97 in 10.0 mi Calm Calm - N/A   Mostly Cloudy
8:51 PM 63.0 °F 55.0 °F 75% 29.97 in 10.0 mi Calm Calm - N/A   Mostly Cloudy
8:58 PM 62.6 °F 53.6 °F 72% 29.97 in 10.0 mi Calm Calm - N/A   Clear
9:37 PM 62.6 °F 53.6 °F 72% 29.98 in 10.0 mi Calm Calm - N/A   Mostly Cloudy
9:51 PM 63.0 °F 54.0 °F 72% 29.97 in 10.0 mi Calm Calm - N/A   Mostly Cloudy
10:22 PM 62.6 °F 53.6 °F 72% 29.98 in 10.0 mi Calm Calm - N/A   Scattered Clouds
10:51 PM 63.0 °F 53.1 °F 70% 29.98 in 10.0 mi South 3.5 mph - N/A   Clear
11:51 PM 61.0 °F 53.1 °F 75% 29.98 in 10.0 mi Calm Calm - N/A   Clear